M I D A S
Marine Information and Data Acquisition System
Tripno 507 of the Zeeleeuw from 2003-05-28 06:13:01 to 2003-05-28 11:02:06
Back to CruiseResearch ActivitiesStationsMapUnderway DataData graphs

EquipmentUnitsComment
TimeDGPSUTC
LatitudeDGPSDM.mWGS84
LongitudeDGPSDM.mWGS84
TemperatureSBE03/SBE38deg celciusITS90
ConductivitySBE21S/mITS90
SalinitySBE21 Practical Salinity Units
ChlorophylAChelsea fluorimeterg/lCalibrated in Aceton
Missing or incorrect values are displayed as -999
Sea surface data collected by the RV Zeeleeuw from 2003-05-28 06:13:01 to 2003-05-28 11:02:06
Time Latitude Longitude Temperature Conductivity Salinity ChlorophylA
2003-05-28 06:14:05 51°13.61 2°56.09 -999 -999 -999 -999
2003-05-28 06:15:07 51°13.61 2°56.09 -999 -999 -999 -999
2003-05-28 06:16:07 51°13.61 2°56.07 -999 -999 -999 -999
2003-05-28 06:17:11 51°13.63 2°55.97 -999 -999 -999 -999
2003-05-28 06:18:11 51°13.67 2°55.85 -999 -999 -999 -999
2003-05-28 06:19:07 51°13.68 2°55.82 -999 -999 -999 -999
2003-05-28 06:20:09 51°13.68 2°55.76 -999 -999 -999 -999
2003-05-28 06:21:07 51°13.69 2°55.76 -999 -999 -999 -999
2003-05-28 06:22:09 51°13.68 2°55.74 -999 -999 -999 -999
2003-05-28 06:23:09 51°13.72 2°55.72 -999 -999 -999 -999
2003-05-28 06:24:07 51°13.81 2°55.65 -999 -999 -999 -999
2003-05-28 06:25:05 51°13.92 2°55.57 -999 -999 -999 -999
2003-05-28 06:26:05 51°14.05 2°55.48 -999 -999 -999 -999
2003-05-28 06:27:09 51°14.17 2°55.37 -999 -999 -999 -999
2003-05-28 06:28:15 51°14.28 2°55.22 -999 -999 -999 -999
2003-05-28 06:29:15 51°14.36 2°55.05 -999 -999 -999 -999
2003-05-28 06:30:15 51°14.4 2°54.79 -999 -999 -999 -999
2003-05-28 06:31:15 51°14.41 2°54.46 -999 -999 -999 -999
2003-05-28 06:32:13 51°14.34 2°54.16 -999 -999 -999 -999
2003-05-28 06:33:49 51°14.17 2°53.64 -999 -999 -999 -999
2003-05-28 06:34:59 51°14.04 2°53.24 -999 -999 -999 -999
2003-05-28 06:36:01 51°13.91 2°52.89 -999 -999 -999 -999
2003-05-28 06:37:05 51°13.78 2°52.53 -999 -999 -999 -999
2003-05-28 06:38:05 51°13.65 2°52.19 -999 -999 -999 -999
2003-05-28 06:39:05 51°13.53 2°51.84 -999 -999 -999 -999
2003-05-28 06:40:05 51°13.41 2°51.5 -999 -999 -999 -999
2003-05-28 06:41:05 51°13.28 2°51.16 -999 -999 -999 -999
2003-05-28 06:42:05 51°13.16 2°50.81 -999 -999 -999 -999
2003-05-28 06:43:09 51°13.03 2°50.44 -999 -999 -999 -999
2003-05-28 06:44:29 51°12.86 2°49.98 -999 -999 -999 -999
2003-05-28 06:45:29 51°12.74 2°49.63 -999 -999 -999 -999
2003-05-28 06:46:29 51°12.62 2°49.28 -999 -999 -999 -999
2003-05-28 06:47:29 51°12.5 2°48.94 -999 -999 -999 -999
2003-05-28 06:48:33 51°12.37 2°48.57 -999 -999 -999 -999
2003-05-28 06:49:35 51°12.24 2°48.21 -999 -999 -999 -999
2003-05-28 06:50:35 51°12.12 2°47.86 -999 -999 -999 -999
2003-05-28 06:51:53 51°11.97 2°47.4 -999 -999 -999 -999
2003-05-28 06:53:09 51°11.84 2°46.95 -999 -999 -999 -999
2003-05-28 06:54:09 51°11.73 2°46.59 -999 -999 -999 -999
2003-05-28 06:55:09 51°11.64 2°46.22 -999 -999 -999 -999
2003-05-28 06:56:15 51°11.54 2°45.81 -999 -999 -999 -999
2003-05-28 06:57:15 51°11.45 2°45.44 -999 -999 -999 -999
2003-05-28 06:58:15 51°11.37 2°45.06 -999 -999 -999 -999
2003-05-28 06:59:19 51°11.29 2°44.66 -999 -999 -999 -999
2003-05-28 07:00:25 51°11.21 2°44.24 -999 -999 -999 -999
2003-05-28 07:01:35 51°11.13 2°43.8 -999 -999 -999 -999
2003-05-28 07:02:41 51°11.05 2°43.38 -999 -999 -999 -999
2003-05-28 07:03:49 51°10.97 2°42.95 -999 -999 -999 -999
2003-05-28 07:04:55 51°10.9 2°42.53 -999 -999 -999 -999
2003-05-28 07:06:01 51°10.83 2°42.11 -999 -999 -999 -999
2003-05-28 07:07:21 51°10.75 2°41.61 -999 -999 -999 -999
2003-05-28 07:08:25 51°10.68 2°41.2 -999 -999 -999 -999
2003-05-28 07:09:35 51°10.61 2°40.77 -999 -999 -999 -999
2003-05-28 07:10:33 51°10.56 2°40.4 -999 -999 -999 -999
2003-05-28 07:11:49 51°10.48 2°39.92 -999 -999 -999 -999
2003-05-28 07:13:01 51°10.41 2°39.47 -999 -999 -999 -999
2003-05-28 07:14:05 51°10.34 2°39.06 -999 -999 -999 -999
2003-05-28 07:15:21 51°10.27 2°38.59 -999 -999 -999 -999
2003-05-28 07:16:25 51°10.2 2°38.18 -999 -999 -999 -999
2003-05-28 07:17:35 51°10.13 2°37.74 -999 -999 -999 -999
2003-05-28 07:18:41 51°10.07 2°37.32 -999 -999 -999 -999
2003-05-28 07:19:55 51°9.99 2°36.86 -999 -999 -999 -999
2003-05-28 07:21:11 51°9.92 2°36.38 -999 -999 -999 -999
2003-05-28 07:22:15 51°9.98 2°35.99 -999 -999 -999 -999
2003-05-28 07:23:21 51°10.17 2°35.76 -999 -999 -999 -999
2003-05-28 07:24:21 51°10.39 2°35.75 -999 -999 -999 -999
2003-05-28 07:25:25 51°10.61 2°35.86 -999 -999 -999 -999
2003-05-28 07:26:37 51°10.84 2°36.05 -999 -999 -999 -999
2003-05-28 07:27:45 51°11.05 2°36.27 -999 -999 -999 -999
2003-05-28 07:28:45 51°11.23 2°36.46 -999 -999 -999 -999
2003-05-28 07:29:57 51°11.45 2°36.69 -999 -999 -999 -999
2003-05-28 07:31:05 51°11.66 2°36.9 -999 -999 -999 -999
2003-05-28 07:32:15 51°11.87 2°37.12 -999 -999 -999 -999
2003-05-28 07:33:15 51°12.06 2°37.31 -999 -999 -999 -999
2003-05-28 07:34:37 51°12.31 2°37.57 -999 -999 -999 -999
2003-05-28 07:35:41 51°12.51 2°37.77 -999 -999 -999 -999
2003-05-28 07:36:41 51°12.69 2°37.96 -999 -999 -999 -999
2003-05-28 07:37:55 51°12.92 2°38.2 -999 -999 -999 -999
2003-05-28 07:39:01 51°13.13 2°38.38 -999 -999 -999 -999
2003-05-28 07:40:05 51°13.34 2°38.54 -999 -999 -999 -999
2003-05-28 07:41:15 51°13.58 2°38.7 -999 -999 -999 -999
2003-05-28 07:42:19 51°13.8 2°38.82 -999 -999 -999 -999
2003-05-28 07:43:29 51°14.04 2°38.78 -999 -999 -999 -999
2003-05-28 07:44:37 51°14.11 2°38.4 -999 -999 -999 -999
2003-05-28 07:45:37 51°14.02 2°38.04 -999 -999 -999 -999
2003-05-28 07:46:37 51°13.9 2°37.7 -999 -999 -999 -999
2003-05-28 07:47:57 51°13.74 2°37.24 -999 -999 -999 -999
2003-05-28 07:49:15 51°13.59 2°36.8 -999 -999 -999 -999
2003-05-28 07:50:29 51°13.45 2°36.37 -999 -999 -999 -999
2003-05-28 07:51:31 51°13.35 2°36 -999 -999 -999 -999
2003-05-28 07:52:47 51°13.23 2°35.55 -999 -999 -999 -999
2003-05-28 07:53:49 51°13.14 2°35.18 -999 -999 -999 -999
2003-05-28 07:55:01 51°13.02 2°34.75 -999 -999 -999 -999
2003-05-28 07:56:11 51°12.91 2°34.33 -999 -999 -999 -999
2003-05-28 07:57:17 51°12.81 2°33.95 -999 -999 -999 -999
2003-05-28 07:58:17 51°12.71 2°33.6 -999 -999 -999 -999
2003-05-28 07:59:25 51°12.6 2°33.21 -999 -999 -999 -999
2003-05-28 08:00:29 51°12.5 2°32.84 -999 -999 -999 -999
2003-05-28 08:01:29 51°12.4 2°32.49 -999 -999 -999 -999
2003-05-28 08:02:29 51°12.31 2°32.14 -999 -999 -999 -999
2003-05-28 08:03:29 51°12.21 2°31.79 -999 -999 -999 -999
2003-05-28 08:04:33 51°12.12 2°31.41 -999 -999 -999 -999
2003-05-28 08:05:33 51°12.03 2°31.05 -999 -999 -999 -999
2003-05-28 08:06:35 51°11.94 2°30.68 -999 -999 -999 -999
2003-05-28 08:07:33 51°11.86 2°30.34 -999 -999 -999 -999
2003-05-28 08:08:33 51°11.78 2°29.99 -999 -999 -999 -999
2003-05-28 08:09:35 51°11.69 2°29.62 -999 -999 -999 -999
2003-05-28 08:10:33 51°11.61 2°29.28 -999 -999 -999 -999
2003-05-28 08:11:35 51°11.52 2°28.92 -999 -999 -999 -999
2003-05-28 08:12:33 51°11.44 2°28.58 -999 -999 -999 -999
2003-05-28 08:13:45 51°11.35 2°28.17 -999 -999 -999 -999
2003-05-28 08:14:45 51°11.31 2°27.81 -999 -999 -999 -999
2003-05-28 08:15:45 51°11.3 2°27.46 -999 -999 -999 -999
2003-05-28 08:16:45 51°11.29 2°27.11 -999 -999 -999 -999
2003-05-28 08:17:45 51°11.28 2°26.76 -999 -999 -999 -999
2003-05-28 08:18:45 51°11.26 2°26.41 -999 -999 -999 -999
2003-05-28 08:19:45 51°11.25 2°26.05 -999 -999 -999 -999
2003-05-28 08:20:45 51°11.28 2°25.71 -999 -999 -999 -999
2003-05-28 08:21:45 51°11.4 2°25.42 -999 -999 -999 -999
2003-05-28 08:22:45 51°11.6 2°25.3 -999 -999 -999 -999
2003-05-28 08:23:45 51°11.82 2°25.4 -999 -999 -999 -999
2003-05-28 08:24:45 51°12.03 2°25.55 -999 -999 -999 -999
2003-05-28 08:25:45 51°12.22 2°25.77 -999 -999 -999 -999
2003-05-28 08:26:45 51°12.39 2°26.01 -999 -999 -999 -999
2003-05-28 08:27:45 51°12.56 2°26.25 -999 -999 -999 -999
2003-05-28 08:28:45 51°12.74 2°26.49 -999 -999 -999 -999
2003-05-28 08:29:45 51°12.91 2°26.74 -999 -999 -999 -999
2003-05-28 08:30:45 51°13.08 2°26.99 -999 -999 -999 -999
2003-05-28 08:31:45 51°13.25 2°27.23 -999 -999 -999 -999
2003-05-28 08:32:45 51°13.42 2°27.48 -999 -999 -999 -999
2003-05-28 08:33:45 51°13.59 2°27.72 -999 -999 -999 -999
2003-05-28 08:34:45 51°13.77 2°27.97 -999 -999 -999 -999
2003-05-28 08:35:45 51°13.94 2°28.22 -999 -999 -999 -999
2003-05-28 08:36:45 51°14.11 2°28.47 -999 -999 -999 -999
2003-05-28 08:37:45 51°14.28 2°28.72 -999 -999 -999 -999
2003-05-28 08:38:45 51°14.46 2°28.96 -999 -999 -999 -999
2003-05-28 08:39:45 51°14.63 2°29.23 -999 -999 -999 -999
2003-05-28 08:40:45 51°14.79 2°29.5 -999 -999 -999 -999
2003-05-28 08:41:45 51°14.96 2°29.77 -999 -999 -999 -999
2003-05-28 08:42:45 51°15.13 2°30.04 -999 -999 -999 -999
2003-05-28 08:43:45 51°15.3 2°30.31 -999 -999 -999 -999
2003-05-28 08:44:45 51°15.47 2°30.58 -999 -999 -999 -999
2003-05-28 08:45:45 51°15.64 2°30.85 -999 -999 -999 -999
2003-05-28 08:46:45 51°15.81 2°31.13 -999 -999 -999 -999
2003-05-28 08:47:45 51°15.98 2°31.4 -999 -999 -999 -999
2003-05-28 08:48:45 51°16.15 2°31.67 -999 -999 -999 -999
2003-05-28 08:49:45 51°16.31 2°31.95 -999 -999 -999 -999
2003-05-28 08:50:45 51°16.48 2°32.22 -999 -999 -999 -999
2003-05-28 08:51:45 51°16.65 2°32.49 -999 -999 -999 -999
2003-05-28 08:52:45 51°16.81 2°32.77 -999 -999 -999 -999
2003-05-28 08:53:45 51°16.98 2°33.04 -999 -999 -999 -999
2003-05-28 08:54:45 51°17.14 2°33.31 -999 -999 -999 -999
2003-05-28 08:55:45 51°17.31 2°33.58 -999 -999 -999 -999
2003-05-28 08:56:45 51°17.48 2°33.86 -999 -999 -999 -999
2003-05-28 08:57:45 51°17.65 2°34.13 -999 -999 -999 -999
2003-05-28 08:58:45 51°17.82 2°34.4 -999 -999 -999 -999
2003-05-28 08:59:45 51°17.99 2°34.67 -999 -999 -999 -999
2003-05-28 09:00:45 51°18.16 2°34.95 -999 -999 -999 -999
2003-05-28 09:01:45 51°18.33 2°35.23 -999 -999 -999 -999
2003-05-28 09:02:45 51°18.48 2°35.53 -999 -999 -999 -999
2003-05-28 09:03:45 51°18.6 2°35.87 -999 -999 -999 -999
2003-05-28 09:04:45 51°18.72 2°36.2 -999 -999 -999 -999
2003-05-28 09:05:45 51°18.84 2°36.54 -999 -999 -999 -999
2003-05-28 09:06:45 51°18.96 2°36.88 -999 -999 -999 -999
2003-05-28 09:07:45 51°19.08 2°37.22 -999 -999 -999 -999
2003-05-28 09:08:45 51°19.21 2°37.56 -999 -999 -999 -999
2003-05-28 09:09:45 51°19.33 2°37.9 -999 -999 -999 -999
2003-05-28 09:10:45 51°19.45 2°38.23 -999 -999 -999 -999
2003-05-28 09:11:45 51°19.57 2°38.56 -999 -999 -999 -999
2003-05-28 09:12:45 51°19.69 2°38.89 -999 -999 -999 -999
2003-05-28 09:13:45 51°19.81 2°39.24 -999 -999 -999 -999
2003-05-28 09:14:45 51°19.89 2°39.6 -999 -999 -999 -999
2003-05-28 09:15:45 51°19.98 2°39.96 -999 -999 -999 -999
2003-05-28 09:16:45 51°20.03 2°40.33 -999 -999 -999 -999
2003-05-28 09:17:45 51°20.08 2°40.71 -999 -999 -999 -999
2003-05-28 09:18:45 51°20.05 2°41.1 -999 -999 -999 -999
2003-05-28 09:19:45 51°20.02 2°41.49 -999 -999 -999 -999
2003-05-28 09:20:45 51°20 2°41.89 -999 -999 -999 -999
2003-05-28 09:21:45 51°19.98 2°42.28 -999 -999 -999 -999
2003-05-28 09:22:45 51°19.96 2°42.68 -999 -999 -999 -999
2003-05-28 09:23:45 51°19.94 2°43.07 -999 -999 -999 -999
2003-05-28 09:24:45 51°19.92 2°43.46 -999 -999 -999 -999
2003-05-28 09:25:45 51°19.9 2°43.84 -999 -999 -999 -999
2003-05-28 09:26:45 51°19.88 2°44.22 -999 -999 -999 -999
2003-05-28 09:27:46 51°19.86 2°44.61 -999 -999 -999 -999
2003-05-28 09:28:46 51°19.85 2°44.99 -999 -999 -999 -999
2003-05-28 09:29:45 51°19.83 2°45.38 -999 -999 -999 -999
2003-05-28 09:30:45 51°19.76 2°45.74 -999 -999 -999 -999
2003-05-28 09:31:45 51°19.64 2°46.08 -999 -999 -999 -999
2003-05-28 09:32:45 51°19.52 2°46.42 -999 -999 -999 -999
2003-05-28 09:33:45 51°19.4 2°46.76 -999 -999 -999 -999
2003-05-28 09:34:45 51°19.29 2°47.09 -999 -999 -999 -999
2003-05-28 09:35:45 51°19.17 2°47.43 -999 -999 -999 -999
2003-05-28 09:36:45 51°19.06 2°47.77 -999 -999 -999 -999
2003-05-28 09:37:45 51°18.95 2°48.11 -999 -999 -999 -999
2003-05-28 09:38:45 51°18.84 2°48.45 -999 -999 -999 -999
2003-05-28 09:39:45 51°18.72 2°48.79 -999 -999 -999 -999
2003-05-28 09:40:45 51°18.61 2°49.13 -999 -999 -999 -999
2003-05-28 09:41:45 51°18.49 2°49.47 -999 -999 -999 -999
2003-05-28 09:42:45 51°18.38 2°49.82 -999 -999 -999 -999
2003-05-28 09:43:45 51°18.27 2°50.16 -999 -999 -999 -999
2003-05-28 09:44:46 51°18.16 2°50.51 -999 -999 -999 -999
2003-05-28 09:45:46 51°18.03 2°50.84 -999 -999 -999 -999
2003-05-28 09:46:46 51°17.91 2°51.17 -999 -999 -999 -999
2003-05-28 09:47:46 51°17.77 2°51.48 -999 -999 -999 -999
2003-05-28 09:48:46 51°17.64 2°51.8 -999 -999 -999 -999
2003-05-28 09:49:46 51°17.5 2°52.12 -999 -999 -999 -999
2003-05-28 09:50:45 51°17.37 2°52.43 -999 -999 -999 -999
2003-05-28 09:51:45 51°17.22 2°52.71 -999 -999 -999 -999
2003-05-28 09:52:46 51°17.07 2°53.02 -999 -999 -999 -999
2003-05-28 09:53:46 51°16.94 2°53.35 -999 -999 -999 -999
2003-05-28 09:54:46 51°16.81 2°53.68 -999 -999 -999 -999
2003-05-28 09:55:46 51°16.69 2°54.02 -999 -999 -999 -999
2003-05-28 09:56:46 51°16.56 2°54.36 -999 -999 -999 -999
2003-05-28 09:57:45 51°16.45 2°54.68 -999 -999 -999 -999
2003-05-28 09:58:45 51°16.37 2°54.95 -999 -999 -999 -999
2003-05-28 09:59:45 51°16.36 2°55.13 -999 -999 -999 -999
2003-05-28 10:00:45 51°16.4 2°55.25 -999 -999 -999 -999
2003-05-28 10:01:46 51°16.45 2°55.33 -999 -999 -999 -999
2003-05-28 10:02:48 51°16.46 2°55.37 -999 -999 -999 -999
2003-05-28 10:03:46 51°16.48 2°55.4 -999 -999 -999 -999
2003-05-28 10:04:46 51°16.51 2°55.43 -999 -999 -999 -999
2003-05-28 10:05:46 51°16.54 2°55.46 -999 -999 -999 -999
2003-05-28 10:06:46 51°16.56 2°55.48 -999 -999 -999 -999
2003-05-28 10:07:46 51°16.58 2°55.51 -999 -999 -999 -999
2003-05-28 10:08:46 51°16.6 2°55.53 -999 -999 -999 -999
2003-05-28 10:09:45 51°16.62 2°55.56 -999 -999 -999 -999
2003-05-28 10:10:46 51°16.64 2°55.59 -999 -999 -999 -999
2003-05-28 10:11:46 51°16.66 2°55.62 -999 -999 -999 -999
2003-05-28 10:12:46 51°16.67 2°55.65 -999 -999 -999 -999
2003-05-28 10:13:46 51°16.69 2°55.69 -999 -999 -999 -999
2003-05-28 10:14:45 51°16.7 2°55.72 -999 -999 -999 -999
2003-05-28 10:15:46 51°16.72 2°55.75 -999 -999 -999 -999
2003-05-28 10:16:46 51°16.73 2°55.78 -999 -999 -999 -999
2003-05-28 10:17:46 51°16.75 2°55.81 -999 -999 -999 -999
2003-05-28 10:18:46 51°16.76 2°55.84 -999 -999 -999 -999
2003-05-28 10:19:45 51°16.78 2°55.87 -999 -999 -999 -999
2003-05-28 10:20:45 51°16.79 2°55.91 -999 -999 -999 -999
2003-05-28 10:21:46 51°16.8 2°55.94 -999 -999 -999 -999
2003-05-28 10:22:46 51°16.82 2°55.97 -999 -999 -999 -999
2003-05-28 10:23:46 51°16.83 2°56 -999 -999 -999 -999
2003-05-28 10:24:46 51°16.85 2°56.03 -999 -999 -999 -999
2003-05-28 10:25:46 51°16.86 2°56.06 -999 -999 -999 -999
2003-05-28 10:26:46 51°16.88 2°56.09 -999 -999 -999 -999
2003-05-28 10:27:46 51°16.89 2°56.12 -999 -999 -999 -999
2003-05-28 10:28:48 51°16.9 2°56.16 -999 -999 -999 -999
2003-05-28 10:29:46 51°16.92 2°56.18 -999 -999 -999 -999
2003-05-28 10:30:47 51°16.93 2°56.21 -999 -999 -999 -999
2003-05-28 10:31:45 51°16.95 2°56.24 -999 -999 -999 -999
2003-05-28 10:32:45 51°16.96 2°56.27 -999 -999 -999 -999
2003-05-28 10:33:45 51°16.98 2°56.31 -999 -999 -999 -999
2003-05-28 10:34:46 51°16.99 2°56.34 -999 -999 -999 -999
2003-05-28 10:35:45 51°17.01 2°56.35 -999 -999 -999 -999
2003-05-28 10:36:45 51°17.02 2°56.32 -999 -999 -999 -999
2003-05-28 10:37:45 51°16.98 2°56.29 -999 -999 -999 -999
2003-05-28 10:38:45 51°16.93 2°56.26 -999 -999 -999 -999
2003-05-28 10:39:46 51°16.89 2°56.19 -999 -999 -999 -999
2003-05-28 10:40:45 51°16.76 2°56.07 -999 -999 -999 -999
2003-05-28 10:41:45 51°16.6 2°55.91 -999 -999 -999 -999
2003-05-28 10:42:45 51°16.44 2°55.73 -999 -999 -999 -999
2003-05-28 10:43:45 51°16.27 2°55.55 -999 -999 -999 -999
2003-05-28 10:44:45 51°16.11 2°55.37 -999 -999 -999 -999
2003-05-28 10:45:45 51°15.94 2°55.18 -999 -999 -999 -999
2003-05-28 10:46:45 51°15.77 2°55 -999 -999 -999 -999
2003-05-28 10:47:45 51°15.6 2°54.82 -999 -999 -999 -999
2003-05-28 10:48:45 51°15.43 2°54.64 -999 -999 -999 -999
2003-05-28 10:49:45 51°15.23 2°54.56 -999 -999 -999 -999
2003-05-28 10:50:46 51°15.02 2°54.59 -999 -999 -999 -999
2003-05-28 10:51:46 51°14.81 2°54.68 -999 -999 -999 -999
2003-05-28 10:52:47 51°14.63 2°54.82 -999 -999 -999 -999
2003-05-28 10:53:45 51°14.45 2°54.95 -999 -999 -999 -999
2003-05-28 10:54:45 51°14.3 2°55.16 -999 -999 -999 -999
2003-05-28 10:55:45 51°14.22 2°55.32 -999 -999 -999 -999
2003-05-28 10:56:45 51°14.15 2°55.4 -999 -999 -999 -999
2003-05-28 10:57:46 51°14.08 2°55.46 -999 -999 -999 -999
2003-05-28 10:58:46 51°14.01 2°55.51 -999 -999 -999 -999
2003-05-28 10:59:46 51°13.93 2°55.56 -999 -999 -999 -999
2003-05-28 11:00:46 51°13.86 2°55.61 -999 -999 -999 -999
2003-05-28 11:01:46 51°13.78 2°55.68 -999 -999 -999 -999